Location: Maccacari
(45.1333°N, 11.1333°E)
Time: 12:42:12
(UTC+00:00)

Transit 2A - All Passes

Search period start: 25 January 2021 00:00
Search period end: 04 February 2021 00:00
Orbit: 598 x 960 km, 66.7° (Epoch: 24 January)

Date Brightness Start Highest point End Pass type
(mag) Time Alt. Az. Time Alt. Az. Time Alt. Az.
25 Jan - 01:53:56 10° S 01:58:55 29° ESE 02:03:32 10° NE visible
25 Jan - 03:36:17 10° SW 03:41:56 51° NW 03:47:04 10° NNE visible
25 Jan - 05:23:50 10° WNW 05:26:16 13° NNW 05:28:37 10° N visible
25 Jan - 10:38:39 10° NNW 10:42:50 32° NE 10:46:46 10° ESE daylight
25 Jan - 12:21:56 10° NW 12:25:54 31° WSW 12:29:42 10° S daylight
26 Jan - 01:20:43 10° SSE 01:24:55 20° ESE 01:28:51 10° ENE visible
26 Jan - 03:01:53 10° SW 03:07:42 70° NW 03:12:59 10° NNE visible
26 Jan - 04:48:21 10° WNW 04:51:45 16° NW 04:54:58 10° N visible
26 Jan - 10:04:42 10° NNW 10:08:28 24° NE 10:12:02 10° E daylight
26 Jan - 11:47:31 10° NW 11:51:52 47° WSW 11:56:01 10° S daylight
27 Jan - 00:48:04 10° SE 00:50:56 14° ESE 00:53:42 10° ENE night (unlit)
27 Jan - 02:27:38 10° SSW 02:33:31 86° ESE 02:38:50 10° NNE visible
27 Jan - 04:13:08 10° W 04:17:17 21° NW 04:21:10 10° N visible
27 Jan - 09:30:50 10° N 09:34:02 18° NE 09:37:05 10° E daylight
27 Jan - 11:13:14 10° NW 11:17:46 74° WSW 11:22:05 10° SSE daylight
28 Jan - 01:53:36 10° SSW 01:59:22 61° ESE 02:04:37 10° NE visible
28 Jan - 03:38:09 10° WSW 03:42:53 27° NW 03:47:16 10° NNE visible
28 Jan - 08:57:08 10° N 08:59:33 14° NNE 09:01:52 10° ENE daylight
28 Jan - 10:39:02 10° NNW 10:43:37 74° ENE 10:47:56 10° SE daylight
28 Jan - 12:24:19 10° W 12:26:00 12° WSW 12:27:40 10° SW daylight
29 Jan - 01:19:45 10° S 01:25:16 43° ESE 01:30:18 10° NE night (unlit)
29 Jan - 03:03:21 10° WSW 03:08:32 35° NW 03:13:18 10° NNE visible
29 Jan - 08:23:53 10° NNE 08:24:59 11° NNE 08:26:05 10° NE daylight
29 Jan - 10:04:56 10° NNW 10:09:23 49° NE 10:13:36 10° SE daylight
29 Jan - 11:48:59 10° WNW 11:52:05 19° WSW 11:55:06 10° SSW daylight
30 Jan - 00:46:10 10° S 00:51:12 31° ESE 00:55:51 10° NE night (unlit)
30 Jan - 02:28:43 10° SW 02:34:15 47° NW 02:39:17 10° NNE visible
30 Jan - 04:16:35 10° NW 04:18:37 12° NNW 04:20:37 10° N visible
30 Jan - 09:30:54 10° NNW 09:35:06 34° NE 09:39:05 10° ESE daylight
30 Jan - 11:14:17 10° NW 11:18:07 28° WSW 11:21:49 10° S daylight
31 Jan - 00:12:52 10° SSE 00:17:10 22° ESE 00:21:12 10° ENE night (unlit)
31 Jan - 01:54:17 10° SW 02:00:01 65° NW 02:05:13 10° NNE visible
31 Jan - 03:40:59 10° WNW 03:44:05 15° NW 03:47:04 10° N visible
31 Jan - 08:56:56 10° NNW 09:00:45 25° NE 09:04:23 10° E daylight
31 Jan - 10:39:50 10° NW 10:44:05 43° WSW 10:48:10 10° S daylight
31 Jan - 23:40:06 10° SE 23:43:12 15° ESE 23:46:10 10° ENE night (unlit)
01 Feb - 01:20:01 10° SSW 01:25:49 89° WNW 01:31:05 10° NNE night (unlit)
01 Feb - 03:05:42 10° W 03:09:37 19° NW 03:13:19 10° N visible
01 Feb - 08:23:05 10° N 08:26:21 19° NE 08:29:29 10° E daylight
01 Feb - 10:05:31 10° NW 10:10:00 67° WSW 10:14:17 10° SSE daylight
02 Feb - 00:45:55 10° SSW 00:51:40 66° ESE 00:56:52 10° NE night (unlit)
02 Feb - 02:30:40 10° W 02:35:12 25° NW 02:39:26 10° NNE visible
02 Feb - 07:49:21 10° N 07:51:52 14° NE 07:54:18 10° ENE daylight
02 Feb - 09:31:19 10° NNW 09:35:51 80° ENE 09:40:10 10° SE daylight
02 Feb - 11:17:06 10° W 11:18:12 11° WSW 11:19:17 10° WSW daylight
03 Feb - 00:12:02 10° S 00:17:33 46° ESE 00:22:34 10° NE night (unlit)
03 Feb - 01:55:49 10° WSW 02:00:51 33° NW 02:05:29 10° NNE visible
03 Feb - 07:15:59 10° NNE 07:17:20 11° NNE 07:18:39 10° NE daylight
03 Feb - 08:57:12 10° NNW 09:01:39 53° NE 09:05:53 10° SE daylight
03 Feb - 10:41:25 10° WNW 10:44:17 17° WSW 10:47:06 10° SSW daylight
03 Feb - 23:38:23 10° S 23:43:28 32° ESE 23:48:09 10° NE night (unlit)
